Regional Weather Roundup
Issued by NWS Kansas City/Pleasant Hill, MO

Home | Current Version | Previous Version | Text Only | Print | Product List | Glossary On
Versions: 1 2 3 4 5 6 7 8 9 10 11 12 13 14 15 16 17 18 19 20 21 22 23 24 25 26 27 28 29 30 31 32 33 34 35 36 37 38 39 40 41 42 43 44 45 46 47 48 49 50
000
ASUS43 KEAX 200604
RWREAX

WEATHER ROUNDUP FOR EASTERN KANSAS AND NORTHWEST MISSOURI
NATIONAL WEATHER SERVICE KANSAS CITY/PLEASANT HILL MO
100 AM CDT WED AUG 20 2014

KSZ040-057-103>105-MOZ028-029-037-043-200700-
...KANSAS CITY METROPOLITAN AREA...

CITY           SKY/WX    TMP DP  RH WIND       PRES   REMARKS
K.C. INTL      FAIR      75  70  84 S8        29.83R
6HR MIN TEMP:  75; 6HR MAX TEMP:  90;

K.C. DOWNTOWN  FAIR      83  69  62 SW7       29.82R
6HR MIN TEMP:  82; 6HR MAX TEMP:  93;

LEES SUMMIT    FAIR      80  70  71 SW9       29.85R
6HR MIN TEMP:  80; 6HR MAX TEMP:  89;

OLATHE - IXD   FAIR      77  69  76 S7        29.85R
6HR MIN TEMP:  75; 6HR MAX TEMP:  91;

OLATHE - OJC   FAIR      77  69  76 S7        29.84R
6HR MIN TEMP:  77; 6HR MAX TEMP:  89;

LAWRENCE       FAIR      79  68  69 S7        29.82S

$$

MOZ001>008-011>017-020>025-030>033-038>040-044>046-053-054-200700-
...NORTHERN AND CENTRAL MISSOURI...

CITY           SKY/WX    TMP DP  RH WIND       PRES   REMARKS
ST. JOSEPH     FAIR      75  72  90 SE3       29.81S
6HR MIN TEMP:  73; 6HR MAX TEMP:  88;

MOSBY          FAIR      75  73  94 CALM      29.82S
WHITEMAN AFB   FAIR      74  65  74 S5        29.85R
6HR MIN TEMP:  74; 6HR MAX TEMP:  86;

CLINTON        FAIR      79  72  78 SW6       29.86S
SEDALIA        FAIR      76  71  85 S7        29.86S
6HR MIN TEMP:  74; 6HR MAX TEMP:  86;

WARSAW         NOT AVBL
MARSHALL       FAIR      75  75 100 SE3       29.85S
CHILLICOTHE      N/A     74  72  93 CALM      29.85R
6HR MIN TEMP:  73; 6HR MAX TEMP:  89;

MOBERLY        FAIR      70  66  88 CALM      29.85S
KIRKSVILLE     FAIR      70  68  93 CALM      29.85S
6HR MIN TEMP:  69; 6HR MAX TEMP:  84;


$$

MOZ041-047>049-056>058-063>065-088>090-097-200700-
...EASTERN AND SOUTHERN MISSOURI...

CITY           SKY/WX    TMP DP  RH WIND       PRES   REMARKS
ST. LOUIS INTL FAIR      76  71  85 CALM      29.85
6HR MIN TEMP:  76; 6HR MAX TEMP:  87;

SPIRIT OF STL  FAIR      72  70  93 CALM      29.84R
COLUMBIA       FAIR      72  70  93 SE8       29.86S
JEFFERSON CITY FAIR      74  71  91 CALM      29.85R
MEXICO         FAIR     N/A N/A N/A SW5       29.86R
ROLLA          FAIR      74  67  78 SW6       29.87R
LEBANON        FAIR      77  66  69 SW3       29.90S
OSAGE BEACH    FAIR      73  70  88 CALM      29.87S
SPRINGFIELD    FAIR      77  68  73 S7        29.90S
BRANSON        FAIR      79  72  78 SW7       29.94R
NEVADA         FAIR      77  70  78 S6        29.88
JOPLIN         FAIR      81  71  71 SW13      29.89R
WEST PLAINS    FAIR      76  70  82 SW6       29.92S

$$

IAZ060-094-KSZ022-034>040-054-083-096-NEZ052-066-093-200700-
...KANSAS...SOUTHEAST NEBRASKA AND IOWA...

CITY           SKY/WX    TMP DP  RH WIND       PRES   REMARKS
TOPEKA         FAIR      80  68  66 S6        29.82R
6HR MIN TEMP:  79; 6HR MAX TEMP:  95;

MANHATTAN      FAIR      81  68  64 SW6       29.81R
EMPORIA        FAIR      76  67  73 S8        29.85R
CHANUTE        FAIR      78  70  76 S7        29.87R
WICHITA        FAIR      79  68  69 S13       29.85R
OMAHA          MOCLDY    76  64  66 SE7       29.81R
LINCOLN        FAIR      79  71  76 SE6       29.80S
FALLS CITY     FAIR      75  72  90 SE6       29.80R
LAMONI         FAIR      73  67  81 SE3       29.84S
DES MOINES     FAIR      73  66  78 SE3       29.82S

$$




USA.gov is the U.S. government's official web portal to all federal, state and local government web resources and services.